Dewpoint
68 69 69 70 70 70 71 70 71 71 71 73 73 73 73 72 73 73 73 74 74 73 73 73 72 73 73 73 73 74 75 74 74 75 74 73 73 73 76 77 73 75 76 76 76 76 74 73 72 72 72 72 71 71 70 69 70 71 71 74 69 68 67 67 68 68 67 66 70 69 70 71 72 72 75 74 74 74 74 74 74 75 75 74 74
69 69 69 69 69 71 71 71 71 71 71 71 71 72 73 73 73 73 74 75 75 74 74 73 74 73 74 75 75 75 74 75 74 75 73 73 74 74 75 75 74 75 76 76 76 75 74 73 73 72 72 72 73 73 73 73 73 71 69 68 70 66 66 65 65 67 65 65 66 66 67 71 72 72 75 75 74 74 74 74 75 74 75 75 74
67 69 70 69 70 71 71 71 71 71 72 71 72 71 73 73 73 73 74 75 75 73 73 73 74 74 73 73 75 76 77 76 75 75 75 74 74 74 74 75 75 74 75 75 75 74 74 73 72 71 71 71 72 74 73 73 72 70 70 68 66 66 66 65 68 68 63 63 67 65 66 65 72 75 74 74 73 75 75 75 74 74 75 75 75
66 67 68 68 69 70 69 70 70 71 72 72 72 72 72 72 73 74 74 74 74 74 74 75 76 76 75 74 74 74 73 74 74 75 75 73 72 73 75 74 75 75 74 73 75 74 73 74 72 70 70 72 72 73 73 71 72 70 67 68 69 66 64 64 66 68 67 64 64 65 65 63 65 68 69 73 74 74 75 75 75 74 76 75 75
66 66 67 68 68 69 70 70 69 70 70 71 71 72 73 73 74 74 74 74 75 75 75 75 74 74 74 74 74 73 73 73 73 72 72 73 72 73 74 74 75 74 74 73 73 72 74 75 74 72 70 71 71 72 73 69 69 68 68 68 69 66 63 62 66 66 66 66 64 63 65 66 63 66 64 69 72 73 75 75 76 75 75 75 75
66 66 67 67 67 69 70 70 69 69 70 71 72 73 74 73 73 73 74 74 75 75 75 75 74 73 73 72 72 72 71 71 70 69 70 71 71 73 74 73 73 74 73 74 74 75 73 75 75 74 71 70 70 71 71 69 69 67 68 67 66 68 68 64 64 68 65 67 67 65 66 65 64 65 61 67 69 69 73 73 76 76 76 76 75
67 66 66 66 66 67 68 69 68 69 71 72 72 72 72 73 74 74 74 74 74 74 75 75 75 74 73 72 72 71 70 70 71 71 71 72 73 73 73 73 73 73 74 74 74 74 74 74 76 75 73 71 72 72 72 70 67 66 67 66 66 67 68 66 65 63 66 66 65 65 67 67 67 66 66 64 65 70 70 72 74 76 76 76 75
65 66 66 66 66 66 67 68 69 70 71 72 71 71 72 72 72 73 73 74 74 74 74 75 75 75 75 74 73 72 71 71 73 73 72 73 72 72 72 73 73 74 76 73 74 74 74 74 75 75 73 72 71 71 71 69 68 66 68 68 68 68 68 67 66 63 63 67 66 65 66 65 66 68 69 66 65 64 68 70 72 74 74 75 75
63 62 64 63 64 65 66 67 68 69 69 70 71 71 72 72 72 72 72 73 73 73 74 74 75 74 74 73 73 73 73 72 73 73 73 73 73 73 74 73 74 74 75 74 72 74 74 75 74 75 74 73 73 71 70 70 69 68 69 69 70 69 68 68 68 66 63 61 65 68 65 65 66 68 68 67 67 66 65 65 69 75 75 74 73
60 62 62 62 62 63 64 66 67 67 68 69 69 69 70 71 72 72 72 72 73 73 73 73 73 74 74 74 74 73 73 73 73 74 73 74 73 73 73 74 74 74 73 73 73 73 73 74 73 73 73 73 73 72 70 71 70 70 69 70 71 70 69 66 67 66 64 63 62 64 68 69 67 66 67 67 68 69 66 64 66 67 71 74 73
58 60 61 62 62 62 62 62 65 66 66 67 67 68 69 70 70 71 71 71 72 72 72 72 72 72 73 74 73 73 73 73 73 73 73 74 73 72 72 73 73 72 74 74 75 72 73 74 72 72 72 73 72 73 72 69 68 68 68 70 70 70 68 67 66 67 65 64 63 63 64 65 68 67 68 68 66 68 68 67 67 68 68 66 69
55 58 60 61 62 62 64 65 65 65 65 64 65 66 67 69 70 70 71 71 71 70 71 71 72 72 73 73 73 73 73 73 73 73 73 73 72 71 73 73 73 72 72 74 72 71 73 72 73 72 72 72 71 72 71 70 69 69 68 69 69 70 70 68 66 66 65 65 66 63 62 63 66 65 66 67 69 68 68 66 65 67 68 68 67
52 55 56 56 58 59 60 62 64 64 65 65 66 66 66 67 68 68 69 70 71 71 71 71 71 71 72 72 73 73 73 74 74 74 74 73 73 73 73 72 72 73 71 70 70 71 72 73 73 72 73 73 74 73 73 73 72 70 69 68 68 70 69 68 66 66 66 64 63 63 62 63 64 65 65 66 66 68 69 69 67 65 65 67 67
54 55 57 58 58 59 62 62 62 62 63 65 66 66 66 66 67 67 67 68 69 69 69 69 70 71 71 72 72 72 73 74 73 74 73 73 73 74 73 72 72 71 69 70 75 71 72 73 74 74 74 74 74 74 75 75 75 72 71 70 68 69 69 70 69 67 67 66 65 63 64 63 63 65 64 65 65 66 67 67 68 67 66 65 68
54 56 56 56 58 60 60 61 61 61 61 62 64 65 66 66 66 66 66 67 68 68 68 69 68 69 70 70 71 72 71 71 72 72 73 73 73 73 74 73 72 73 72 72 73 72 73 74 74 73 73 75 75 74 73 74 76 75 73 73 70 68 69 68 67 66 65 66 66 65 64 64 64 63 63 63 65 65 65 66 68 67 65 64 65
54 56 57 58 59 60 60 60 60 60 61 61 63 64 63 65 66 66 66 66 67 68 67 68 68 67 69 70 70 70 71 72 71 72 73 73 73 73 73 74 73 73 73 73 71 72 72 72 73 72 74 74 75 75 75 75 76 75 74 73 72 69 69 69 69 68 66 67 68 67 66 65 65 64 63 63 65 67 66 66 68 68 67 65 63
56 55 55 58 58 59 60 60 59 59 59 61 63 63 63 63 63 64 65 65 66 67 67 68 68 68 67 68 69 69 70 70 69 70 71 72 73 74 74 73 73 73 72 73 73 73 73 73 72 72 73 74 74 74 74 75 75 75 73 75 73 69 69 69 69 68 68 67 67 67 66 65 64 66 64 64 66 68 66 66 66 66 69 67 66
56 57 58 59 59 58 58 58 58 58 59 59 61 61 62 62 63 64 64 64 65 66 66 66 67 67 68 68 68 69 69 69 70 70 71 71 71 72 72 72 72 72 72 71 72 72 73 74 73 73 73 73 73 72 73 74 75 74 74 76 74 72 69 69 69 68 66 66 65 65 65 63 63 63 63 64 66 68 67 66 66 67 68 68 68
56 57 58 58 58 58 58 58 59 59 60 59 59 59 59 62 64 63 63 64 64 65 65 66 67 66 67 67 68 68 68 69 69 70 71 71 70 70 70 71 71 72 73 73 73 72 72 72 74 74 74 73 72 72 73 74 74 74 76 75 75 74 71 69 70 69 65 64 66 65 64 62 62 61 62 62 64 66 66 66 66 67 68 69 70
56 57 57 58 57 57 56 57 57 58 58 57 59 59 58 61 62 62 64 64 64 65 65 65 65 66 66 66 67 68 69 68 69 70 69 68 70 71 70 70 70 70 71 72 72 73 74 73 73 74 74 72 71 73 74 73 75 75 74 73 73 75 73 71 69 67 65 64 65 64 65 65 64 62 61 60 62 65 65 66 67 67 68 69 70
55 55 56 57 57 56 56 54 55 58 59 58 58 56 57 60 61 62 62 62 63 64 65 66 66 67 66 66 65 66 67 67 68 68 68 68 69 69 68 69 72 71 71 72 73 74 74 74 73 73 73 73 73 73 74 72 74 75 75 75 74 74 74 72 71 69 66 65 66 65 65 65 66 62 62 61 61 62 64 65 66 66 66 69 70
54 52 51 52 55 57 55 56 58 58 58 59 57 55 58 59 61 61 62 63 63 64 65 67 67 67 67 66 66 67 68 68 68 68 68 67 67 68 69 71 71 72 73 72 72 72 72 72 72 72 73 73 74 73 72 74 73 74 73 72 73 74 73 75 73 71 69 66 65 67 66 65 65 65 65 64 63 61 61 64 66 66 66 67 69
53 53 52 52 54 57 55 57 58 59 60 61 59 60 59 61 62 62 63 64 64 65 66 67 67 67 67 67 67 67 67 69 68 68 67 67 67 68 70 70 71 71 73 72 73 73 72 72 72 73 74 73 73 73 73 74 72 73 73 72 72 73 72 74 73 73 70 69 67 67 66 66 64 66 66 65 65 63 63 64 65 66 67 67 69
55 56 54 56 57 57 58 57 58 59 60 59 61 62 62 62 62 62 62 64 65 66 66 66 66 66 67 67 67 66 67 68 68 68 68 68 68 68 69 70 71 72 71 71 72 72 72 73 73 72 72 73 73 73 74 74 73 74 73 73 72 73 72 73 73 72 72 72 70 69 67 67 69 69 69 67 67 66 67 67 66 66 67 67 69
56 56 57 57 57 58 59 59 60 59 60 61 62 62 63 62 62 62 63 64 65 66 66 66 66 66 66 66 67 67 67 67 67 66 67 68 67 68 68 69 70 71 73 73 73 73 73 72 72 72 72 72 72 72 72 73 72 73 73 73 73 73 72 72 72 72 73 74 73 71 70 70 69 68 68 67 67 67 67 67 66 66 67 67 68
57 57 57 58 58 58 60 60 59 56 58 60 63 63 63 64 64 64 64 64 65 64 66 66 65 65 65 66 66 66 66 66 66 66 66 67 67 68 68 69 70 71 71 71 72 73 73 73 72 72 72 72 72 73 73 73 74 74 73 73 73 73 72 72 71 72 72 73 73 73 72 73 72 72 70 71 70 70 69 68 68 69 68 68 69
57 58 58 58 60 59 59 59 57 58 61 62 62 62 63 63 63 63 64 65 65 66 66 66 65 65 64 65 65 65 65 65 65 66 67 68 68 67 68 69 70 70 70 71 71 72 73 74 74 73 72 72 72 73 73 74 74 74 74 73 73 73 72 72 72 73 72 73 74 73 72 73 73 71 70 70 69 71 71 70 69 70 71 70 69
58 57 58 58 58 58 58 59 60 61 62 62 62 62 63 64 64 64 65 65 65 65 66 66 65 65 65 65 65 65 66 66 66 67 68 67 67 68 68 69 69 70 70 70 70 71 71 72 74 72 73 72 73 73 73 75 75 74 75 74 74 73 73 73 73 73 73 73 74 74 74 73 73 73 73 72 71 72 71 71 70 71 71 71 69
56 59 59 58 57 59 59 60 61 61 61 62 63 64 64 65 65 65 65 65 66 66 66 66 66 65 65 65 65 65 66 66 67 67 67 67 67 68 68 69 69 69 69 70 70 72 72 71 71 72 73 71 71 71 73 74 75 72 72 74 74 73 73 73 74 72 73 74 74 74 73 72 74 74 74 74 73 74 72 72 73 73 73 73 73
53 54 55 57 57 58 59 59 59 60 61 62 63 64 64 64 64 64 65 65 65 65 66 66 65 65 65 65 66 66 66 67 67 67 67 67 67 67 68 68 69 69 69 70 72 71 72 72 72 72 72 72 73 73 72 71 71 73 73 71 72 73 73 74 74 75 73 73 74 73 73 73 73 74 74 75 74 75 75 73 73 75 74 75 75
55 56 56 57 57 57 58 58 58 60 62 63 64 64 64 64 64 64 65 65 65 65 66 65 64 65 65 65 65 65 66 66 66 66 67 67 67 67 67 68 68 68 69 70 70 71 71 71 72 73 72 71 70 72 71 68 68 70 72 72 71 74 74 73 72 71 72 71 72 73 73 73 74 74 75 75 74 74 74 74 74 75 75 76 76
55 55 57 57 57 57 57 57 58 60 62 63 64 64 64 63 64 64 64 65 65 66 65 64 63 64 64 64 64 65 65 65 65 66 66 67 67 67 67 68 67 68 68 68 69 71 70 71 71 71 72 72 73 72 67 67 68 68 70 72 72 70 71 72 71 71 71 70 72 73 73 73 73 73 73 73 74 74 74 74 73 73 74 75 75
56 56 56 57 57 57 58 58 60 60 62 62 63 63 63 64 64 64 65 65 65 64 64 63 63 63 64 64 65 65 65 65 65 66 66 66 66 66 67 67 67 67 68 68 69 70 70 70 70 71 71 71 72 72 66 66 66 67 67 70 72 71 73 72 73 72 72 73 73 72 73 73 73 74 74 74 74 74 73 73 73 73 73 73 71
56 56 56 57 56 56 57 59 60 61 61 62 63 63 63 64 64 65 65 65 64 63 63 63 63 63 64 64 64 65 64 65 65 66 66 66 66 66 66 66 67 68 68 68 68 69 69 71 70 70 71 71 72 72 66 66 66 66 66 68 71 71 71 72 72 72 72 73 73 73 73 72 74 74 74 74 74 75 75 75 75 75 74 74 73
56 56 56 56 57 57 57 57 58 59 61 62 61 63 63 63 64 64 65 64 63 63 62 62 62 63 64 64 64 64 64 64 65 65 65 65 65 66 66 67 68 68 68 69 69 68 69 69 69 70 70 69 70 69 66 65 64 64 65 68 71 71 71 72 72 72 73 73 73 72 73 73 73 74 74 74 74 74 75 74 75 75 75 75 75
55 55 56 56 55 56 57 59 61 60 60 61 62 62 63 63 64 63 63 63 63 63 62 61 62 63 63 64 64 64 64 64 64 65 65 65 65 65 65 67 68 68 68 68 69 69 69 68 69 70 69 69 70 67 65 64 63 63 65 69 71 70 71 72 71 72 72 73 73 73 73 72 72 74 73 73 74 74 74 73 73 73 73 75 76
55 54 55 58 59 59 58 61 61 60 60 61 62 63 62 62 62 62 62 62 62 61 61 62 61 62 63 63 63 63 64 64 64 64 64 64 65 65 65 67 67 68 68 68 68 68 69 68 69 68 69 70 69 68 64 63 62 62 64 70 71 70 70 70 71 71 72 73 73 72 72 71 72 73 72 67 69 74 74 74 73 73 73 74 75
54 56 57 59 59 58 59 59 60 61 61 62 62 62 62 61 61 61 62 61 60 60 61 61 62 63 63 63 64 64 64 64 64 64 64 65 65 65 65 66 67 67 67 68 69 68 69 69 68 68 68 70 70 71 64 62 62 62 67 70 71 69 70 71 71 72 73 72 73 71 72 73 73 73 70 66 66 73 73 74 75 74 75 75 75
54 55 57 57 59 61 62 61 60 60 61 62 62 62 61 61 61 61 60 60 60 61 61 62 62 63 63 63 64 64 64 64 64 64 64 65 64 65 65 66 67 67 67 68 67 68 68 68 68 70 70 70 70 70 62 62 61 62 66 70 71 71 71 71 71 71 71 73 72 71 72 73 72 72 67 65 65 73 73 73 74 75 74 74 73
55 56 56 57 60 61 60 59 59 60 61 61 60 61 60 60 59 60 59 60 60 60 62 62 62 63 63 63 64 64 64 64 64 64 65 64 65 65 65 66 67 67 66 66 66 67 68 68 68 69 69 70 71 71 69 61 60 61 62 70 71 71 70 70 70 70 71 71 72 71 73 68 66 66 64 63 63 65 72 74 74 72 71 72 75
51 54 58 58 59 58 57 59 59 61 62 60 60 59 59 60 60 59 59 59 60 60 62 62 62 62 62 62 63 63 63 64 64 64 65 65 65 65 65 66 66 66 66 66 67 67 67 68 68 68 69 69 70 71 70 62 60 60 61 65 69 70 71 70 70 70 70 70 71 72 72 70 64 63 62 61 60 60 67 74 74 72 72 72 74
54 57 59 59 56 56 57 57 59 60 62 61 60 60 60 59 58 57 59 60 60 60 61 61 62 62 61 63 63 63 63 63 64 64 64 64 65 66 66 66 66 66 66 66 66 66 66 67 68 69 70 70 70 70 70 65 60 59 59 60 69 70 70 71 70 70 70 70 71 72 71 70 63 62 62 60 59 60 62 72 74 66 66 67 74
54 56 56 57 57 56 56 58 58 61 62 62 61 61 60 60 59 59 59 59 60 60 61 61 61 61 62 62 63 63 63 62 63 64 64 64 65 66 67 66 66 66 66 66 65 66 66 66 66 67 69 69 70 70 70 70 64 58 58 58 60 66 65 71 70 69 70 70 72 71 71 69 62 59 58 58 58 58 63 68 63 62 63 64 69
51 51 54 57 59 57 55 56 57 61 62 62 61 61 61 60 60 61 60 60 60 59 60 60 60 61 61 62 63 63 63 63 64 64 66 66 66 66 66 65 66 66 66 65 65 65 65 65 66 66 67 68 69 69 70 69 69 63 59 57 57 58 60 68 70 70 70 70 71 71 71 62 60 55 55 57 58 61 67 61 59 61 63 66 71
52 53 56 58 58 58 58 59 59 60 61 62 62 61 61 61 61 61 61 60 59 58 58 59 60 60 60 61 62 62 62 63 63 64 64 64 65 66 65 66 65 65 65 65 65 63 63 64 65 66 66 67 69 69 69 69 68 67 62 59 58 58 58 57 65 69 70 71 68 62 59 60 60 57 55 57 58 60 57 58 59 61 68 70 70
54 55 56 58 57 57 57 59 60 61 61 61 61 60 60 61 61 61 60 59 59 59 59 58 59 59 59 60 61 61 62 62 62 63 64 64 64 64 64 64 64 64 63 64 64 64 62 63 65 66 66 66 68 69 69 69 69 69 67 63 61 61 66 64 66 66 67 64 61 60 59 59 60 61 67 68 68 69 63 61 61 64 68 70 70
57 57 58 58 57 56 57 59 59 60 60 59 60 60 61 61 61 59 58 59 59 59 59 58 58 58 59 60 60 59 58 59 62 62 63 62 63 63 63 63 64 63 63 63 63 64 63 65 65 65 66 67 67 68 68 68 69 70 69 69 69 68 67 67 68 68 67 67 66 66 66 64 64 65 66 67 67 68 69 69 69 69 69 69 70
58 59 59 58 58 58 58 59 59 60 60 60 60 60 60 60 60 60 59 59 59 58 57 57 55 57 58 59 59 60 59 58 60 61 61 62 62 62 62 62 62 62 62 61 61 62 61 61 61 62 65 66 67 67 68 66 68 68 67 68 68 69 69 69 69 69 69 69 70 69 67 68 68 68 68 68 69 69 69 69 69 69 69 69 70
58 59 59 59 59 59 60 59 59 60 61 61 61 60 60 60 60 60 60 59 58 58 58 56 56 56 57 58 57 57 58 58 60 61 61 63 63 62 62 63 64 63 63 62 61 61 63 61 60 62 64 64 66 66 68 56 67 57 66 67 67 68 68 69 69 66 69 70 69 69 69 68 68 68 68 68 68 69 70 70 69 69 70 69 70
59 59 59 60 60 60 60 60 60 61 61 61 60 60 60 60 60 60 59 59 60 58 57 55 54 55 56 55 57 57 58 58 57 58 60 61 62 60 60 62 62 63 62 59 57 63 62 62 62 62 64 64 64 65 57 53 53 52 50 50 53 52 50 61 65 61 68 68 67 67 67 67 67 67 67 67 67 68 68 69 69 68 70 70 70
60 60 60 60 60 60 60 60 60 61 61 60 60 60 60 60 60 59 59 59 60 58 57 55 54 54 55 56 57 56 58 59 59 58 58 59 60 61 53 53 58 61 58 54 51 52 53 56 63 63 64 60 59 57 53 51 50 49 47 46 46 46 49 51 55 68 66 66 65 66 65 66 66 66 66 66 67 66 67 67 67 69 69 70 69